period_start,C,m1,H,J0,J1,J2,J3,J4,J5,JA,JB,JC,JD,JJ,JK,JN,#
2018-04-01 00:04:57,0.23,8.91,0.00,23.52,27.40,30.48,14.07,49.23,1014.67,2020.91,1334.68,1560.54,1764.41,600.30,594.19,51.73,0000 0000 0000 0000 000000
2018-04-01 00:09:58,0.21,8.93,0.00,23.52,27.42,30.50,13.91,49.08,1014.66,2020.84,1333.19,1559.46,1763.17,599.73,593.57,51.78,0000 0000 0000 0000 000000
2018-04-01 00:14:59,0.26,8.94,0.00,23.54,27.42,30.49,13.97,49.10,1014.65,2020.92,1331.66,1558.37,1761.87,599.98,593.71,51.83,0000 0000 0000 0000 000000
2018-04-01 00:20:00,0.23,8.95,0.00,23.57,27.42,30.50,13.96,49.23,1014.37,2020.91,1330.14,1557.34,1760.67,599.90,593.46,51.88,0000 0000 0000 0000 000000
2018-04-01 00:25:02,0.25,8.97,0.00,23.57,27.44,30.49,13.93,49.23,1014.22,2020.91,1328.60,1556.23,1759.53,599.78,593.27,51.93,0000 0000 0000 0000 000000
2018-04-01 00:30:03,0.19,8.98,0.00,23.58,27.45,30.50,13.95,49.16,1014.19,2020.77,1327.06,1555.17,1758.26,600.16,593.62,51.98,0000 0000 0000 0000 000000
2018-04-01 00:35:04,0.24,8.99,0.00,23.60,27.45,30.49,13.88,49.30,1014.31,2020.71,1325.62,1554.11,1757.04,599.66,593.05,52.03,0000 0000 0000 0000 000000
2018-04-01 00:40:06,0.16,9.00,0.00,23.62,27.47,30.52,13.93,49.16,1014.26,2020.45,1324.32,1553.09,1755.82,600.24,593.63,52.08,0000 0000 0000 0000 000000
2018-04-01 00:45:07,0.21,9.01,0.00,23.63,27.48,30.52,13.93,49.20,1014.18,2020.23,1322.84,1552.13,1754.70,600.04,593.37,52.13,0000 0000 0000 0000 000000
2018-04-01 00:50:08,0.19,9.02,0.00,23.65,27.50,30.52,13.87,49.30,1014.18,2020.13,1321.56,1551.16,1753.64,599.81,593.12,52.18,0000 0000 0000 0000 000000
2018-04-01 00:55:09,0.19,9.03,0.00,23.66,27.51,30.54,13.91,49.21,1014.18,2020.04,1320.25,1550.21,1752.53,599.94,593.38,52.23,0000 0000 0000 0000 000000
2018-04-01 01:00:11,0.21,9.04,0.00,23.69,27.52,30.53,13.88,49.13,1014.17,2020.03,1318.91,1549.29,1751.59,600.00,593.11,52.28,0000 0000 0000 0000 000000
2018-04-01 01:05:12,0.20,9.05,0.00,23.72,27.55,30.55,13.98,49.23,1014.16,2020.02,1317.77,1548.46,1750.54,600.01,593.15,52.33,0000 0000 0000 0000 000000
2018-04-01 01:10:13,0.18,9.06,0.00,23.73,27.56,30.56,13.96,49.29,1014.16,2020.01,1316.67,1547.67,1749.57,600.25,593.23,52.38,0000 0000 0000 0000 000000
2018-04-01 01:15:15,0.14,9.07,0.00,23.75,27.57,30.56,13.90,49.35,1014.00,2020.01,1315.62,1546.92,1748.71,600.00,592.77,52.44,0000 0000 0000 0000 000000
2018-04-01 01:20:16,0.17,9.07,0.00,23.76,27.60,30.60,13.90,49.27,1013.75,2020.00,1314.56,1546.08,1747.95,599.90,592.65,52.49,0000 0000 0000 0000 000000
2018-04-01 01:25:17,0.13,9.08,0.00,23.79,27.62,30.62,13.85,49.38,1013.69,2020.00,1313.82,1545.52,1747.10,599.92,592.69,52.54,0000 0000 0000 0000 000000
2018-04-01 01:30:18,0.15,9.09,0.00,23.82,27.63,30.63,13.93,49.17,1013.69,2020.00,1312.79,1544.88,1746.31,600.08,592.75,52.59,0000 0000 0000 0000 000000
2018-04-01 01:35:19,0.19,9.10,0.00,23.86,27.65,30.64,13.91,49.17,1013.69,2020.00,1311.65,1544.04,1745.48,599.77,592.38,52.64,0000 0000 0000 0000 000000
2018-04-01 01:40:21,0.20,9.11,0.00,23.88,27.65,30.66,13.91,49.21,1013.70,2020.00,1310.49,1543.21,1744.53,600.54,593.20,52.69,0000 0000 0000 0000 000000
2018-04-01 01:45:22,0.17,9.12,0.00,23.91,27.67,30.69,13.86,49.25,1013.70,2020.00,1309.50,1542.41,1743.69,600.23,592.43,52.74,0000 0000 0000 0000 000000
2018-04-01 01:50:23,0.15,9.12,0.00,23.94,27.68,30.71,13.83,49.16,1013.71,2020.00,1308.56,1541.69,1742.75,600.06,592.47,52.79,0000 0000 0000 0000 000000
2018-04-01 01:55:25,0.14,9.13,0.00,23.96,27.70,30.74,13.85,49.23,1013.74,2019.99,1307.66,1540.96,1741.83,599.28,591.78,52.84,0000 0000 0000 0000 000000
2018-04-01 02:00:26,0.17,9.14,0.00,24.00,27.72,30.74,13.94,49.15,1013.83,2019.95,1306.64,1540.13,1740.98,600.42,592.80,52.89,0000 0000 0000 0000 000000
2018-04-01 02:05:27,0.17,9.15,0.00,24.02,27.73,30.76,13.88,49.24,1013.86,2019.90,1305.62,1539.38,1740.08,600.12,592.49,52.94,0000 0000 0000 0000 000000
2018-04-01 02:10:29,0.13,9.16,0.00,24.05,27.75,30.78,13.90,49.23,1013.71,2019.72,1304.63,1538.72,1739.21,600.31,592.71,52.99,0000 0000 0000 0000 000000
2018-04-01 02:15:30,0.08,9.16,0.00,24.08,27.77,30.80,13.87,49.18,1013.70,2019.49,1303.69,1537.95,1738.31,599.79,592.02,53.04,0000 0000 0000 0000 000000
2018-04-01 02:20:31,0.14,9.17,0.00,24.12,27.79,30.81,13.96,49.18,1013.69,2019.08,1302.68,1537.09,1737.35,600.33,592.43,53.09,0000 0000 0000 0000 000000
2018-04-01 02:25:33,0.20,9.18,0.00,24.15,27.81,30.84,13.87,49.31,1013.69,2019.06,1301.59,1536.32,1736.51,599.71,591.70,53.14,0000 0000 0000 0000 000000
2018-04-01 02:30:34,0.16,9.19,0.00,24.18,27.83,30.86,13.97,49.32,1013.68,2019.04,1300.61,1535.63,1735.64,600.55,592.29,53.19,0000 0000 0000 0000 000000
2018-04-01 02:35:35,0.13,9.19,0.00,24.22,27.86,30.87,13.92,49.23,1013.68,2019.01,1299.61,1534.98,1734.71,600.09,592.02,53.24,0000 0000 0000 0000 000000
2018-04-01 02:40:36,0.18,9.20,0.00,24.26,27.89,30.90,13.88,49.13,1013.66,2019.00,1298.62,1534.20,1733.81,600.17,592.08,53.29,0000 0000 0000 0000 000000
2018-04-01 02:45:37,0.17,9.21,0.00,24.30,27.91,30.92,13.82,49.10,1013.45,2019.00,1297.64,1533.45,1732.91,600.07,591.66,53.34,0000 0000 0000 0000 000000
2018-04-01 02:50:39,0.14,9.22,0.00,24.33,27.94,30.94,13.84,49.28,1013.42,2018.98,1296.64,1532.73,1732.00,599.76,591.35,53.40,0000 0000 0000 0000 000000
2018-04-01 02:55:40,0.15,9.23,0.00,24.37,27.97,30.96,13.87,49.25,1013.25,2018.98,1295.73,1531.96,1731.06,599.67,591.02,53.45,0000 0000 0000 0000 000000
2018-04-01 03:00:41,0.16,9.24,0.00,24.42,28.00,30.99,13.91,49.38,1013.21,2018.86,1294.72,1531.11,1730.13,600.20,591.38,53.50,0000 0000 0000 0000 000000
2018-04-01 03:05:43,0.10,9.24,0.00,24.45,28.03,31.01,13.99,49.34,1013.20,2018.37,1293.72,1530.32,1729.21,600.19,591.32,53.55,0000 0000 0000 0000 000000
2018-04-01 03:10:44,0.16,9.25,0.00,24.49,28.06,31.04,13.89,49.31,1013.21,2018.04,1292.70,1529.50,1728.25,600.23,591.33,53.60,0000 0000 0000 0000 000000
2018-04-01 03:15:45,0.16,9.26,0.00,24.53,28.10,31.08,13.82,49.33,1013.22,2018.01,1291.74,1528.72,1727.34,599.71,590.82,53.65,0000 0000 0000 0000 000000
2018-04-01 03:20:46,0.14,9.27,0.00,24.58,28.13,31.09,13.91,49.31,1013.21,2018.00,1290.77,1527.97,1726.60,600.06,590.98,53.70,0000 0000 0000 0000 000000
2018-04-01 03:25:47,0.18,9.28,0.00,24.62,28.16,31.12,13.84,49.33,1013.20,2017.99,1289.79,1527.10,1725.65,600.14,590.98,53.75,0000 0000 0000 0000 000000
2018-04-01 03:30:49,0.19,9.28,0.00,24.66,28.19,31.16,13.82,49.26,1013.21,2017.97,1288.73,1526.27,1724.72,599.72,590.43,53.80,0000 0000 0000 0000 000000
2018-04-01 03:35:50,0.12,9.29,0.00,24.71,28.23,31.19,13.86,49.24,1013.20,2017.93,1287.85,1525.59,1723.90,600.03,590.71,53.85,0000 0000 0000 0000 000000
2018-04-01 03:40:52,0.10,9.30,0.00,24.76,28.26,31.22,13.87,49.44,1013.19,2017.68,1286.90,1524.86,1723.01,600.11,590.65,53.90,0000 0000 0000 0000 000000
2018-04-01 03:45:53,0.10,9.31,0.00,24.80,28.30,31.26,13.88,49.48,1013.18,2017.15,1285.97,1524.04,1722.10,600.06,590.39,53.95,0000 0000 0000 0000 000000
2018-04-01 03:50:54,0.18,9.31,0.00,24.86,28.34,31.29,13.91,49.42,1013.17,2017.02,1285.03,1523.24,1721.21,599.94,590.39,54.00,0000 0000 0000 0000 000000
2018-04-01 03:55:56,0.18,9.32,0.00,24.91,28.37,31.31,13.83,49.27,1012.99,2017.00,1284.05,1522.48,1720.28,600.09,590.26,54.05,0000 0000 0000 0000 000000
2018-04-01 04:00:57,0.17,9.33,0.00,24.97,28.41,31.35,13.73,49.27,1013.02,2016.99,1283.05,1521.66,1719.39,599.67,589.64,54.10,0000 0000 0000 0000 000000
2018-04-01 04:05:58,0.15,9.34,0.00,25.02,28.45,31.38,13.86,49.31,1012.82,2016.98,1282.05,1520.93,1718.42,600.22,590.02,54.15,0000 0000 0000 0000 000000
2018-04-01 04:11:00,0.17,9.35,0.00,25.07,28.49,31.42,13.83,49.38,1012.74,2016.92,1281.02,1520.08,1717.55,600.38,590.07,54.20,0000 0000 0000 0000 000000
2018-04-01 04:16:01,0.11,9.36,0.00,25.10,28.52,31.48,13.84,49.34,1012.73,2016.49,1280.01,1519.30,1716.61,600.03,589.54,54.25,0000 0000 0000 0000 000000
2018-04-01 04:21:02,0.11,9.36,0.00,25.12,28.56,31.52,13.82,49.39,1012.71,2016.08,1279.08,1518.51,1715.73,600.12,589.68,54.31,0000 0000 0000 0000 000000
2018-04-01 04:26:04,0.14,9.37,0.00,25.16,28.59,31.54,13.78,49.23,1012.71,2016.01,1278.22,1517.81,1714.87,599.13,588.51,54.36,0000 0000 0000 0000 000000
2018-04-01 04:31:05,0.16,9.38,0.00,25.20,28.62,31.56,13.79,49.24,1012.71,2016.00,1277.22,1517.03,1714.01,599.66,588.97,54.41,0000 0000 0000 0000 000000
2018-04-01 04:36:06,0.19,9.38,0.00,25.23,28.65,31.59,13.77,49.23,1012.71,2016.00,1276.26,1516.26,1713.13,599.99,589.11,54.46,0000 0000 0000 0000 000000
2018-04-01 04:41:07,0.17,9.39,0.00,25.29,28.67,31.65,13.84,49.33,1012.71,2016.00,1275.38,1515.56,1712.24,599.98,589.15,54.51,0000 0000 0000 0000 000000
2018-04-01 04:46:08,0.13,9.40,0.00,25.37,28.70,31.73,13.81,49.34,1012.71,2015.99,1274.47,1514.94,1711.53,600.40,589.42,54.56,0000 0000 0000 0000 000000
2018-04-01 04:51:10,0.17,9.41,0.00,25.44,28.70,31.82,13.72,49.25,1012.71,2015.99,1273.56,1514.12,1710.72,599.27,588.26,54.61,0000 0000 0000 0000 000000
2018-04-01 04:56:11,0.16,9.42,0.00,25.50,28.72,31.77,13.76,49.23,1012.71,2015.96,1272.63,1513.46,1709.91,600.23,588.87,54.66,0000 0000 0000 0000 000000
2018-04-01 05:01:12,0.12,9.42,0.00,25.56,28.72,31.76,13.82,49.23,1012.71,2015.96,1271.76,1512.87,1709.05,599.83,588.46,54.71,0000 0000 0000 0000 000000
2018-04-01 05:06:14,0.16,9.43,0.00,25.60,28.72,31.73,13.72,49.34,1012.69,2015.96,1270.84,1512.06,1708.28,599.79,588.32,54.76,0000 0000 0000 0000 000000
2018-04-01 05:11:15,0.18,9.44,0.00,25.63,28.72,31.72,13.80,49.50,1012.48,2015.95,1269.81,1511.41,1707.60,600.21,588.59,54.81,0000 0000 0000 0000 000000
2018-04-01 05:16:16,0.09,9.45,0.00,25.68,28.72,31.66,13.75,49.38,1012.40,2015.95,1269.00,1510.90,1706.91,600.20,588.59,54.86,0000 0000 0000 0000 000000
2018-04-01 05:21:17,0.17,9.46,0.00,25.71,28.70,31.61,13.79,49.38,1012.29,2015.96,1268.15,1510.09,1706.09,600.25,588.24,54.91,0000 0000 0000 0000 000000
2018-04-01 05:26:19,0.16,9.46,0.00,25.76,28.70,31.45,13.67,49.42,1012.24,2015.95,1267.34,1509.64,1705.37,599.78,587.83,54.96,0000 0000 0000 0000 000000
2018-04-01 05:31:20,0.11,9.47,0.00,25.80,28.69,31.31,13.76,49.33,1012.24,2015.95,1266.65,1508.98,1704.67,600.46,588.40,55.01,0000 0000 0000 0000 000000
2018-04-01 05:36:21,0.16,9.48,0.00,25.83,28.67,31.33,13.69,49.37,1012.23,2015.96,1265.74,1508.20,1703.90,599.94,587.74,55.06,0000 0000 0000 0000 000000
2018-04-01 05:41:23,0.16,9.49,0.00,25.85,28.66,31.35,13.71,49.43,1012.23,2015.96,1264.80,1507.62,1703.08,599.70,587.49,55.11,0000 0000 0000 0000 000000
2018-04-01 05:46:24,0.15,9.50,0.00,25.84,28.64,31.23,13.68,49.56,1012.22,2015.97,1263.80,1506.97,1702.23,599.61,587.57,55.16,0000 0000 0000 0000 000000
2018-04-01 05:51:25,0.19,9.50,0.00,25.84,28.61,31.23,13.77,49.41,1012.22,2015.99,1262.77,1506.19,1701.63,600.23,588.06,55.22,0000 0000 0000 0000 000000
2018-04-01 05:56:26,0.11,9.51,0.00,25.84,28.59,31.16,13.78,49.63,1012.22,2015.99,1261.84,1505.77,1700.97,600.15,588.01,55.27,0000 0000 0000 0000 000000
2018-04-01 06:01:27,0.15,9.52,0.00,25.85,28.56,31.12,13.70,49.63,1012.21,2015.99,1261.01,1505.04,1700.13,599.93,587.72,55.32,0000 0000 0000 0000 000000
2018-04-01 06:06:29,0.16,9.52,0.00,25.88,28.54,31.11,13.68,49.56,1012.21,2015.99,1260.20,1504.55,1699.63,599.65,587.47,55.37,0000 0000 0000 0000 000000
2018-04-01 06:11:30,0.11,9.53,0.00,25.90,28.51,31.07,13.70,49.66,1012.10,2015.99,1259.31,1504.00,1698.93,600.15,587.65,55.42,0000 0000 0000 0000 000000
2018-04-01 06:16:31,0.19,9.54,0.00,25.91,28.48,31.02,13.69,50.04,1011.86,2016.02,1258.40,1503.28,1698.10,599.98,587.39,55.47,0000 0000 0000 0000 000000
2018-04-01 06:21:32,0.19,9.55,0.00,25.95,28.46,31.01,13.77,49.95,1011.80,2016.14,1257.50,1502.70,1697.42,600.17,587.42,55.52,0000 0000 0000 0000 000000
2018-04-01 06:26:33,0.18,9.56,0.00,25.98,28.43,31.09,13.68,49.95,1011.96,2016.59,1256.73,1502.02,1696.82,600.06,587.44,55.57,0000 0000 0000 0000 000000
2018-04-01 06:31:35,0.16,9.57,0.00,26.00,28.41,31.02,13.68,49.90,1011.95,2016.83,1255.92,1501.43,1696.04,600.22,587.69,55.62,0000 0000 0000 0000 000000
2018-04-01 06:36:36,0.15,9.58,0.00,26.03,28.39,30.99,13.67,49.75,1011.82,2016.94,1254.99,1500.92,1695.27,599.67,586.99,55.67,0000 0000 0000 0000 000000
2018-04-01 06:41:37,0.18,9.59,0.00,26.07,28.37,30.96,13.63,49.67,1011.79,2016.98,1254.06,1500.09,1694.53,599.88,586.98,55.72,0000 0000 0000 0000 000000
2018-04-01 06:46:38,0.16,9.59,0.00,26.09,28.35,30.99,13.70,49.58,1011.78,2016.99,1253.13,1499.54,1693.84,600.16,587.24,55.77,0000 0000 0000 0000 000000
2018-04-01 06:51:40,0.13,9.60,0.00,26.11,28.32,30.95,13.72,49.60,1011.76,2016.99,1252.24,1498.97,1693.05,600.07,587.17,55.82,0000 0000 0000 0000 000000
2018-04-01 06:56:41,0.19,9.61,0.00,26.13,28.31,30.91,13.66,49.52,1011.74,2016.99,1251.36,1498.19,1692.29,599.91,586.84,55.87,0000 0000 0000 0000 000000
2018-04-01 07:01:43,0.15,9.62,0.00,26.17,28.30,30.94,13.67,49.50,1011.73,2016.99,1250.46,1497.67,1691.62,600.02,586.98,55.92,0000 0000 0000 0000 000000
2018-04-01 07:06:44,0.13,9.63,0.00,26.19,28.27,30.97,13.63,49.72,1011.73,2017.01,1249.48,1496.98,1690.88,600.25,587.08,55.97,0000 0000 0000 0000 000000
2018-04-01 07:11:45,0.22,9.64,0.00,26.21,28.26,30.98,13.69,49.96,1011.72,2017.10,1248.14,1496.15,1690.05,599.84,586.67,56.02,0000 0000 0000 0000 000000
2018-04-01 07:16:46,0.21,9.65,0.00,26.25,28.25,31.03,13.56,49.87,1011.73,2017.43,1247.14,1495.68,1689.31,599.50,586.21,56.07,0000 0000 0000 0000 000000
2018-04-01 07:21:47,0.18,9.66,0.00,26.27,28.23,31.06,13.65,49.83,1011.72,2017.67,1246.05,1494.97,1688.60,600.05,586.72,56.12,0000 0000 0000 0000 000000
2018-04-01 07:26:49,0.22,9.67,0.00,26.30,28.22,31.07,13.65,49.75,1011.73,2017.89,1245.01,1494.13,1687.97,599.75,586.35,56.18,0000 0000 0000 0000 000000
2018-04-01 07:31:50,0.14,9.68,0.00,26.34,28.22,31.04,13.65,49.73,1011.73,2017.97,1244.31,1493.79,1687.16,599.96,586.49,56.23,0000 0000 0000 0000 000000
2018-04-01 07:36:52,0.17,9.68,0.00,26.18,28.20,30.95,13.71,49.71,1011.73,2017.98,1243.52,1493.04,1686.42,600.09,586.98,56.28,0000 0000 0000 0000 000000
2018-04-01 07:41:53,0.17,9.69,0.00,26.00,28.20,30.94,13.62,49.70,1011.72,2017.99,1242.48,1492.31,1685.69,600.18,587.31,56.33,0000 0000 0000 0000 000000
2018-04-01 07:46:55,0.18,9.70,0.00,25.97,28.19,30.94,13.72,49.66,1011.73,2017.99,1241.40,1491.64,1684.83,600.38,587.62,56.38,0000 0000 0000 0000 000000
2018-04-01 07:51:56,0.15,9.71,0.00,25.98,28.17,30.94,13.70,49.74,1011.73,2017.99,1240.32,1490.90,1683.95,599.99,587.19,56.43,0000 0000 0000 0000 000000
2018-04-01 07:56:57,0.19,9.72,0.00,25.99,28.17,30.93,13.65,49.86,1011.70,2017.99,1239.13,1490.08,1683.09,599.95,587.15,56.48,0000 0000 0000 0000 000000
2018-04-01 08:01:58,0.19,9.73,0.00,26.01,28.17,30.95,13.68,49.79,1011.73,2017.99,1238.10,1489.46,1682.34,600.03,587.25,56.53,0000 0000 0000 0000 000000
2018-04-01 08:07:00,0.15,9.74,0.00,26.05,28.17,30.99,13.74,50.16,1011.70,2017.99,1237.08,1488.84,1681.59,600.19,587.25,56.58,0000 0000 0000 0000 000000
2018-04-01 08:12:01,0.20,9.75,0.00,26.09,28.18,30.96,13.69,50.39,1011.71,2017.99,1235.86,1488.00,1680.76,599.82,586.89,56.63,0000 0000 0000 0000 000000
2018-04-01 08:17:02,0.22,9.76,0.00,26.12,28.20,30.95,13.66,50.50,1011.71,2018.00,1234.63,1487.13,1679.82,599.61,586.74,56.68,0000 0000 0000 0000 000000
2018-04-01 08:22:04,0.15,9.77,0.00,26.14,28.20,30.97,13.71,50.41,1011.74,2018.00,1233.76,1486.47,1679.03,600.20,587.14,56.73,0000 0000 0000 0000 000000
2018-04-01 08:27:05,0.11,9.77,0.00,26.17,28.21,30.99,13.68,50.23,1011.81,2018.01,1232.95,1485.99,1678.39,599.91,586.67,56.78,0000 0000 0000 0000 000000
2018-04-01 08:32:06,0.17,9.78,0.00,26.20,28.22,31.02,13.74,50.27,1011.74,2018.00,1232.06,1485.25,1677.80,600.01,586.79,56.83,0000 0000 0000 0000 000000
2018-04-01 08:37:08,0.17,9.79,0.00,26.23,28.25,31.06,13.72,50.17,1012.04,2018.02,1231.07,1484.60,1677.00,600.03,586.98,56.88,0000 0000 0000 0000 000000
2018-04-01 08:42:09,0.14,9.80,0.00,26.26,28.27,31.10,13.66,50.05,1012.00,2018.00,1230.08,1484.00,1676.15,600.04,586.79,56.93,0000 0000 0000 0000 000000
2018-04-01 08:47:10,0.19,9.81,0.00,26.29,28.29,31.16,13.71,50.08,1011.87,2018.00,1229.11,1483.30,1675.56,599.93,586.65,56.98,0000 0000 0000 0000 000000
2018-04-01 08:52:12,0.11,9.82,0.00,26.31,28.31,31.18,13.70,50.11,1011.79,2018.00,1228.29,1482.90,1674.93,600.17,586.82,57.03,0000 0000 0000 0000 000000
2018-04-01 08:57:13,0.18,9.82,0.00,26.33,28.34,31.26,13.69,50.11,1011.72,2018.00,1227.47,1482.11,1674.11,599.76,586.33,57.08,0000 0000 0000 0000 000000
2018-04-01 09:02:14,0.17,9.83,0.00,26.37,28.36,31.31,13.70,50.16,1011.73,2018.00,1226.46,1481.65,1673.45,600.29,586.91,57.14,0000 0000 0000 0000 000000
2018-04-01 09:07:16,0.10,9.84,0.00,26.39,28.39,31.32,13.69,50.07,1011.73,2017.99,1225.64,1481.01,1672.86,599.64,586.14,57.19,0000 0000 0000 0000 000000
2018-04-01 09:12:17,0.20,9.85,0.00,26.42,28.42,31.34,13.70,50.14,1011.74,2017.98,1224.50,1480.31,1672.04,600.14,586.60,57.24,0000 0000 0000 0000 000000
2018-04-01 09:17:18,0.15,9.86,0.00,26.43,28.45,31.36,13.64,50.11,1011.81,2017.96,1223.47,1479.83,1671.23,599.76,586.25,57.29,0000 0000 0000 0000 000000
2018-04-01 09:22:20,0.16,9.86,0.00,26.44,28.47,31.36,13.66,50.22,1011.77,2017.83,1222.42,1479.06,1670.51,600.20,586.54,57.34,0000 0000 0000 0000 000000
2018-04-01 09:27:21,0.11,9.87,0.00,26.47,28.50,31.41,13.67,50.24,1011.86,2017.60,1221.51,1478.50,1669.85,600.12,586.49,57.39,0000 0000 0000 0000 000000
2018-04-01 09:32:23,0.10,9.88,0.00,26.49,28.52,31.41,13.68,50.13,1012.03,2017.25,1220.43,1477.96,1669.04,600.16,586.57,57.44,0000 0000 0000 0000 000000
2018-04-01 09:37:24,0.17,9.88,0.00,26.51,28.55,31.43,13.70,50.15,1012.11,2017.11,1219.51,1477.16,1668.24,600.18,586.43,57.49,0000 0000 0000 0000 000000
2018-04-01 09:42:26,0.14,9.89,0.00,26.52,28.57,31.48,13.65,50.12,1012.16,2017.03,1218.57,1476.76,1667.57,600.17,586.62,57.54,0000 0000 0000 0000 000000
2018-04-01 09:47:27,0.13,9.90,0.00,26.53,28.60,31.49,13.72,50.09,1012.21,2017.00,1217.61,1476.03,1666.94,600.27,586.71,57.59,0000 0000 0000 0000 000000
2018-04-01 09:52:28,0.19,9.91,0.00,26.55,28.61,31.53,13.68,50.10,1012.21,2017.00,1216.59,1475.52,1666.12,600.03,586.42,57.64,0000 0000 0000 0000 000000
2018-04-01 09:57:30,0.13,9.91,0.00,26.57,28.64,31.55,13.69,50.07,1012.23,2017.00,1215.68,1474.99,1665.50,600.11,586.63,57.69,0000 0000 0000 0000 000000
2018-04-01 10:02:31,0.14,9.92,0.00,26.60,28.66,31.57,13.69,50.02,1012.23,2017.00,1214.85,1474.22,1664.81,600.16,586.45,57.74,0000 0000 0000 0000 000000
2018-04-01 10:07:33,0.13,9.93,0.00,26.59,28.68,31.56,13.66,49.88,1012.23,2016.99,1213.92,1473.75,1664.01,600.09,586.47,57.79,0000 0000 0000 0000 000000
2018-04-01 10:12:34,0.16,9.94,0.00,26.60,28.70,31.61,13.69,49.98,1012.22,2016.97,1212.97,1473.04,1663.21,600.12,586.54,57.84,0000 0000 0000 0000 000000
2018-04-01 10:17:35,0.16,9.95,0.00,26.57,28.72,31.66,13.74,49.86,1012.23,2016.89,1212.02,1472.53,1662.68,600.37,586.77,57.89,0000 0000 0000 0000 000000
2018-04-01 10:22:36,0.10,9.95,0.00,26.57,28.75,31.67,13.68,49.88,1012.22,2016.69,1211.06,1472.01,1662.00,599.68,586.08,57.94,0000 0000 0000 0000 000000
2018-04-01 10:27:37,0.14,9.96,0.00,26.56,28.76,31.68,13.68,49.86,1012.22,2016.48,1210.08,1471.50,1661.21,600.03,586.44,57.99,0000 0000 0000 0000 000000
2018-04-01 10:32:38,0.11,9.96,0.00,26.56,28.78,31.70,13.62,49.94,1012.23,2016.21,1209.18,1471.00,1660.66,599.96,586.33,58.05,0000 0000 0000 0000 000000
2018-04-01 10:37:40,0.15,9.97,0.00,26.55,28.80,31.71,13.72,49.92,1012.22,2016.07,1208.16,1470.42,1659.89,599.83,586.32,58.10,0000 0000 0000 0000 000000
2018-04-01 10:42:41,0.13,9.98,0.00,26.54,28.81,31.74,13.65,49.96,1012.22,2016.01,1207.13,1469.95,1659.06,600.16,586.64,58.15,0000 0000 0000 0000 000000
2018-04-01 10:47:43,0.19,9.99,0.00,26.54,28.83,31.72,13.73,49.92,1012.24,2016.01,1206.20,1469.16,1658.39,600.21,586.64,58.20,0000 0000 0000 0000 000000
2018-04-01 10:52:44,0.12,10.00,0.00,26.53,28.85,31.75,13.64,50.07,1012.23,2016.00,1205.22,1468.80,1657.81,599.97,586.47,58.25,0000 0000 0000 0000 000000
2018-04-01 10:57:45,0.17,10.01,0.00,26.54,28.86,31.75,13.67,50.08,1012.26,2016.00,1204.24,1468.03,1657.01,599.88,586.39,58.30,0000 0000 0000 0000 000000
2018-04-01 11:02:46,0.18,10.01,0.00,26.52,28.87,31.78,13.74,49.98,1012.29,2016.00,1203.36,1467.54,1656.22,600.11,586.65,58.35,0000 0000 0000 0000 000000
2018-04-01 11:07:47,0.12,10.02,0.00,26.52,28.87,31.78,13.75,49.92,1012.31,2016.00,1202.43,1467.00,1655.71,600.19,586.72,58.40,0000 0000 0000 0000 000000
2018-04-01 11:12:49,0.16,10.03,0.00,26.52,28.90,31.79,13.70,49.90,1012.34,2016.00,1201.55,1466.45,1655.02,600.26,586.68,58.45,0000 0000 0000 0000 000000
2018-04-01 11:17:50,0.13,10.03,0.00,26.51,28.90,31.80,13.74,49.96,1012.52,2016.00,1200.65,1465.99,1654.28,600.32,586.94,58.50,0000 0000 0000 0000 000000
2018-04-01 11:22:52,0.13,10.04,0.00,26.50,28.91,31.80,13.70,49.92,1012.61,2016.00,1199.83,1465.36,1653.87,599.81,586.60,58.55,0000 0000 0000 0000 000000
2018-04-01 11:27:53,0.11,10.05,0.00,26.50,28.92,31.82,13.67,49.95,1012.71,2015.98,1199.01,1465.00,1653.06,600.33,587.13,58.60,0000 0000 0000 0000 000000
2018-04-01 11:32:55,0.18,10.06,0.00,26.49,28.92,31.82,13.68,50.01,1012.70,2015.98,1198.17,1464.42,1652.61,600.02,586.86,58.65,0000 0000 0000 0000 000000
2018-04-01 11:37:56,0.11,10.06,0.00,26.50,28.92,31.83,13.69,49.96,1012.69,2015.96,1197.33,1464.01,1652.00,599.96,586.76,58.70,0000 0000 0000 0000 000000
2018-04-01 11:42:57,0.14,10.07,0.00,26.50,28.94,31.82,13.78,50.01,1012.59,2015.95,1196.69,1463.58,1651.32,600.18,586.93,58.75,0000 0000 0000 0000 000000
2018-04-01 11:47:58,0.08,10.08,0.00,26.49,28.95,31.84,13.66,50.05,1012.45,2015.93,1195.98,1463.02,1650.87,599.77,586.45,58.80,0000 0000 0000 0000 000000
2018-04-01 11:53:00,0.16,10.08,0.00,26.48,28.95,31.84,13.75,50.15,1012.29,2015.79,1195.13,1462.47,1650.07,600.20,586.78,58.85,0000 0000 0000 0000 000000
2018-04-01 11:58:01,0.15,10.09,0.00,26.47,28.96,31.85,13.71,50.36,1011.96,2015.80,1194.28,1461.90,1649.27,599.94,586.40,58.90,0000 0000 0000 0000 000000
2018-04-01 12:03:02,0.21,10.10,0.00,26.45,28.97,31.86,13.64,50.45,1011.79,2015.85,1193.17,1460.97,1648.59,600.00,586.34,58.96,0000 0000 0000 0000 000000
2018-04-01 12:08:03,0.23,10.12,0.00,26.44,28.97,31.86,13.68,50.51,1011.74,2015.86,1191.93,1460.04,1647.14,599.93,586.35,59.01,0000 0000 0000 0000 000000
2018-04-01 12:13:04,0.27,10.12,0.00,26.42,28.97,31.86,13.64,50.73,1011.42,2015.83,1190.56,1459.09,1646.20,600.14,586.38,59.06,0000 0000 0000 0000 000000
2018-04-01 12:18:06,0.23,10.14,0.00,26.40,28.99,31.88,13.72,50.96,1011.23,2015.81,1189.37,1458.05,1645.10,600.07,586.11,59.11,0000 0000 0000 0000 000000
2018-04-01 12:23:07,0.21,10.15,0.00,26.36,29.00,31.89,13.74,51.00,1011.01,2015.77,1188.08,1457.18,1644.14,600.13,586.32,59.16,0000 0000 0000 0000 000000
2018-04-01 12:28:09,0.21,10.16,0.00,26.31,29.00,31.87,13.70,51.02,1010.84,2015.76,1186.97,1456.35,1643.16,600.05,586.18,59.21,0000 0000 0000 0000 000000
2018-04-01 12:33:10,0.08,10.17,0.00,26.29,29.00,31.86,13.65,50.70,1010.92,2015.42,1186.09,1455.83,1642.28,599.54,585.64,59.26,0000 0000 0000 0000 000000
2018-04-01 12:38:12,0.19,10.17,0.00,26.25,29.00,31.90,13.75,50.80,1010.96,2015.45,1185.29,1455.06,1641.71,600.37,586.68,59.31,0000 0000 0000 0000 000000
2018-04-01 12:43:13,0.09,10.18,0.00,26.22,29.00,31.88,13.71,50.66,1010.96,2015.52,1184.66,1454.64,1641.01,600.29,586.51,59.36,0000 0000 0000 0000 000000
2018-04-01 12:48:14,0.12,10.19,0.00,26.17,29.00,31.89,13.75,50.63,1011.07,2015.33,1184.01,1454.01,1640.24,600.35,586.78,59.41,0000 0000 0000 0000 000000
2018-04-01 12:59:03,0.00,0.00,0.00,25.94,29.05,31.77,11.96,43.48,1010.87,1819.58,3096.92,2769.75,3186.60,526.76,515.21,0.00,0000 0000 0000 0000 000000
2018-04-01 13:04:04,0.01,0.00,0.00,25.91,29.02,31.79,13.71,49.38,1010.84,2020.97,3432.67,3071.67,3534.53,599.77,586.71,0.05,0000 0000 0000 0000 000000